Orbital Elements at Epoch 2459000.5 (2020-May-31.0) TDB
Reference: JPL 23 (heliocentric ecliptic J2000)
Element | Value | Uncertainty (1-sigma) | Units |
e | .121606978702004 | 3.3493e-08 | |
a | 3.252696756287754 | 2.0326e-08 | au |
q | 2.857146131121791 | 1.1791e-07 | au |
i | .9932544101829079 | 4.5022e-06 | deg |
node | 9.486444590471311 | 0.0001969 | deg |
peri | 68.39933212695438 | 0.00019775 | deg |
M | 252.2644687300462 | 1.985e-05 | deg |
tp | 2459641.739473115843 (2022-Mar-03.23947312) | 0.00011966 | TDB |
period | 2142.711950278228 5.87 | 2.0085e-05 5.499e-08 | d yr |
n | .1680113838695185 | 1.5748e-09 | deg/d |
Q | 3.648247381453716 | 2.2798e-08 | au |
|
| | Orbit Determination Parameters
Additional Information
|